Flight Track Log - Related Links

Times and Time Zones

All times are in EST time to prevent confusion due to time zone crossing. See the UAL582 flight status page for this flight to view local times or setup timezone preferences in your user account.

Time Position Orientation Groundspeed Altitude Reporting Facility
EST Latitude Longitude Course Direction KTS MPH feet Rate Location/Type
17:17 43.6833 -79.6333 301° West 20 23 900  Level Toronto Center
17:18 43.7167 -79.5833 47° Northeast 160 184 2,800 2,200 Climbing Toronto Center
17:19 43.7667 -79.5667 14° North 220 253 5,300 1,650 Climbing Toronto Center
17:20 43.6203 -79.9742 270° West  Level Estimated
17:20 43.8167 -79.6333 316° Northwest 260 299 6,100  Level Toronto Center
17:21 43.6012 -80.0886 277° West  Level Estimated
17:21 43.8167 -79.7500 270° West 260 299 6,900  Level Toronto Center
17:22 43.5818 -80.2030 270° West  Level Estimated
17:22 43.8000 -79.8333 255° West 260 299 10,400  Level Toronto Center
17:23 43.6175 -80.2842 301° West  Level FlightAware Approximate
17:23 43.8000 -79.9833 270° West 320 368 12,600  Level Toronto Center
17:24 43.7833 -80.1000 259° West 340 391 15,500 2,750 Climbing Toronto Center
17:25 43.7667 -80.2333 260° West 350 403 18,100 2,200 Climbing Toronto Center
17:26 43.7500 -80.3667 260° West 370 426 19,900 1,850 Climbing Toronto Center
17:27 43.7500 -80.5167 270° West 380 437 21,800 2,050 Climbing Toronto Center
17:28 43.7167 -80.6667 253° West 390 449 24,000 1,950 Climbing Toronto Center
17:29 43.6833 -80.8167 253° West 400 460 25,700 1,550 Climbing Toronto Center
17:30 43.6333 -80.9667 245° Southwest 410 472 27,100 1,700 Climbing Toronto Center
17:31 43.6000 -81.1000 251° West 410 472 29,100 2,000 Climbing Toronto Center
17:32 43.5667 -81.2667 255° West 400 460 31,100 1,800 Climbing Toronto Center
17:33 43.5500 -81.4000 260° West 400 460 32,700 1,350 Climbing Toronto Center
17:34 43.5167 -81.5333 251° West 400 460 33,800 650 Climbing Toronto Center
17:35 43.4833 -81.7000 255° West 400 460 34,000 100 Climbing Toronto Center
17:36 43.4500 -81.8333 251° West 400 460 34,000  Level Toronto Center
17:37 43.4000 -82.0000 248° West 400 460 34,000  Level Toronto Center
17:38 43.3667 -82.1333 251° West 410 472 34,000  Level Toronto Center
17:39 43.3333 -82.3000 255° West 410 472 34,000  Level Toronto Center
17:40 43.3167 -82.4333 260° West 410 472 34,000 -326 Level Toronto Center
17:40 43.2983 -82.5275 255° West 404 465 33,500 -1,326 Descending Cleveland Center
17:41 43.2644 -82.6706 252° West 399 459 31,900 -720 Descending Cleveland Center
17:42 43.2269 -82.8172 251° West 407 468 32,000 48 Climbing Cleveland Center
17:43 43.1853 -82.9622 249° West 411 473 32,000  Level Cleveland Center
17:45 43.1453 -83.1089 250° West 413 475 32,000  Level Cleveland Center
17:46 43.0964 -83.2811 249° West 407 468 32,000  Level Cleveland Center
17:47 43.0558 -83.4256 249° West 410 472 32,000  Level Cleveland Center
17:48 43.0144 -83.5708 249° West 412 474 32,000  Level Cleveland Center
17:49 42.9744 -83.7147 249° West 409 471 32,000  Level Cleveland Center
17:50 42.9536 -83.8617 259° West 399 459 32,000  Level Cleveland Center
17:51 42.9406 -84.0097 263° West 397 457 32,000  Level Cleveland Center
17:52 42.9239 -84.1847 263° West 392 451 32,000  Level Cleveland Center
17:53 42.9089 -84.3339 262° West 396 456 32,000  Level Cleveland Center
17:54 42.8986 -84.4361 262° West 398 458 32,000  Level Chicago Center
17:55 42.8811 -84.6156 262° West 399 459 32,000  Level Chicago Center
17:56 42.8653 -84.7653 262° West 400 460 32,000  Level Chicago Center
17:57 42.8492 -84.9189 262° West 408 470 32,000  Level Chicago Center
17:58 42.8333 -85.0681 262° West 400 460 32,000  Level Chicago Center
17:59 42.8167 -85.2183 261° West 401 461 32,000  Level Chicago Center
18:00 42.8006 -85.3672 262° West 399 459 32,000 -290 Level Chicago Center
18:01 42.7772 -85.5450 260° West 397 457 31,400 -1,210 Descending Chicago Center
18:02 42.7506 -85.6925 256° West 398 458 29,500 -2,081 Descending Chicago Center
18:03 42.7250 -85.8353 256° West 392 451 27,100 -2,226 Descending Chicago Center
18:04 42.7000 -85.9719 256° West 378 435 24,900 -2,129 Descending Chicago Center
18:05 42.6767 -86.1047 257° West 363 418 22,700 -2,177 Descending Chicago Center
18:06 42.6522 -86.2333 256° West 352 405 20,400 -1,296 Descending Chicago Center
18:07 42.6283 -86.3586 256° West 345 397 20,000 -864 Descending Chicago Center
18:08 42.5997 -86.5094 256° West 341 392 18,600 -1,548 Descending Chicago Center
18:09 42.5769 -86.6317 256° West 336 387 16,800 -1,887 Descending Chicago Center
18:10 42.5544 -86.7506 256° West 328 377 14,700 -1,269 Descending Chicago Center
18:16 42.3610 -87.2280 256° West 100 115 8,700 -997 Descending FlightAware
18:16 42.3170 -87.2570 206° Southwest 100 115 8,700  Level FlightAware
18:17 42.3040 -87.2660 207° Southwest 100 115 8,700  Level FlightAware
18:17 42.2960 -87.2710 205° Southwest 100 115 8,700  Level FlightAware
18:18 42.2870 -87.2770 206° Southwest 100 115 8,700  Level FlightAware
18:18 42.2790 -87.2820 205° Southwest 100 115 8,700 -1,052 Level FlightAware
18:19 42.0667 -87.3333 205° Southwest 237 273 7,000 -992 Descending Chicago TRACON
18:20 42.0333 -87.3833 228° Southwest 225 259 6,500 -850 Descending Chicago TRACON
18:21 42.0000 -87.4667 242° Southwest 220 253 5,300 -750 Descending Chicago TRACON
18:22 41.9833 -87.5333 251° West 227 261 5,000 -298 Descending Chicago TRACON
18:23 41.9833 -87.6167 270° West 227 261 4,700 -793 Descending Chicago TRACON
18:24 41.9833 -87.7000 270° West 219 252 3,400 -1,200 Descending Chicago TRACON
18:25 41.9833 -87.7833 270° West 192 221 2,300 -1,000 Descending Chicago TRACON
18:26 41.9833 -87.8333 270° West 151 174 1,400 -900 Descending Chicago TRACON

Login

Don't have an account? Register now (free) for customized features, flight alerts, and more!